Preview of NWS' New Version of Forecast
This preview is not operational and should not be used for support decisions.
Latest weather observations around

Gadsden, Gadsden Municipal Airport (KGAD)

Using International System of Units (Switch to English Units)
Date/ Time (CDT) Wind (kph) Vis. (km) Weather Sky Cond. Temp (°C) Rel. Humidity Wind Chill (°C) Heat Index (°C) Pressure Precip. (cm)
Air Dwpt 6 hour Altimeter (hPa) Sea level (hPa) 1 hr 3 hr 6 hr
Max Min
May 27 23:56 NNE 8 16.09 Clear CLR 22 21     96%   22 1013.6 1013.3      
May 27 21:56 NE 11 16.09 Clear CLR 23 21     87%   24 1013.6 1013.3      
May 27 21:16 ENE 15 16.09 Mostly Cloudy BKN036 24 23     94%   25 1013.2        
May 27 20:56 Calm 16.09 Cloudy BKN038 OVC065 24 23     94%   25 1013.2 1012.9      
May 27 19:56 NE 5 16.09 Mostly Clear FEW044 25 23     90%   26 1012.2 1011.9      
May 27 19:52 NNE 5 16.09 Mostly Clear FEW044 25 23     89%   26 1012.2        
May 27 19:37 E 5 16.09 Mostly Clear FEW080 26 23     84%   28 1012.2        
May 27 17:56 ENE 9 16.09 Clear   28 24     79%   32 1011.2 1011      
May 27 16:56 NNE 5 16.09 Clear CLR 27 23     79%   30 1011.5 1011.3 0    
May 27 14:56 E 9 16.09 Light Rain FEW039 SCT070 BKN095 23 23     97%   24 1013.2 1013      
May 27 14:25 SE 24 16.09 Light Rain BKN035 BKN049 OVC065 25 22     83%   26 1012.9   0    
May 27 13:56 ESE 8 12.87 Mostly Cloudy SCT035 BKN050 BKN065 29 22     67%   32 1012.9 1012.5      
May 27 13:46 NE 5 14.48 Mostly Cloudy FEW035 BKN055 29 22     66%   32 1012.9        
May 27 12:56 E 13 16.09 Mostly Cloudy SCT031 BKN065 BKN080 29 22     67%   32 1013.2 1013      
May 27 12:47 11 16.09 Partly Cloudy SCT031 29 23     70%   33 1013.2        
May 27 12:40 NE 11 16.09 Mostly Cloudy BKN029 29 23     70%   33 1013.6        
May 27 11:56 NE 11 16.09 Partly Cloudy SCT025 SCT031 29 23     70%   34 1013.9 1013.8      
May 27 11:32 9 16.09 Mostly Cloudy BKN021 28 23     74%   31 1014.6        
May 27 10:56 8 16.09 Partly Cloudy SCT019 27 23     77%   30 1014.9 1014.7      
May 27 10:07 8 16.09 Mostly Cloudy BKN017 26 23     84%   28 1014.9        
May 27 09:56 NE 8 16.09 Partly Cloudy SCT017 26 23     82%   28 1014.9 1014.6      
May 27 08:56 ENE 9 16.09 Partly Cloudy SCT014 24 22     88%   25 1014.9 1014.7      
May 27 08:29 ENE 8 16.09 Cloudy FEW007 OVC014 23 22     94%   24 1014.9        
May 27 07:56 Calm 16.09 Cloudy OVC012 22 22     100%   23 1014.6 1014.3      
May 27 07:27 Calm 16.09 Mostly Cloudy BKN012 22 22     100%   23 1014.6        
May 27 06:56 Calm 12.87 Mostly Clear FEW012 21 21     100%     1014.2 1014.1      
May 27 06:53 Calm 11.27 Mostly Clear FEW012 21 21     100%     1014.2        
May 27 06:46 Calm 12.87 Mostly Cloudy BKN012 21 21     100%     1014.2        
May 27 05:56 Calm 14.48 Clear CLR 19 19     100%     1013.9 1013.8      
May 27 04:56 Calm 16.09 Clear CLR 20 20     100%     1013.9 1013.5      
May 27 03:56 Calm 16.09 Clear CLR 21 21     100%     1013.6 1013.1      
May 27 02:56 Calm 16.09 Clear CLR 21 21     100%     1012.9 1012.7      
May 27 01:56 S 5 16.09 Mostly Cloudy FEW047 BKN060 22 22     100%   23 1013.6 1013.1      
May 27 00:56 Calm 16.09 Partly Cloudy FEW039 SCT110 22 22     97%   23 1013.6 1013.3 0   0
May 26 23:56 8 16.09 Mostly Cloudy BKN041 23 22     91%   24 1013.6 1013.4      
May 26 22:56 SE 15 16.09 Mostly Cloudy FEW047 BKN120 22 21     96%   22 1013.9 1013.6      
May 26 21:56 Calm 16.09 Cloudy OVC120 23 21     90%   23 1013.2 1013.1      
May 26 20:56 Calm 16.09 Partly Cloudy FEW045 SCT100 23 21     87%   24 1012.9 1012.5      
May 26 19:56 Calm 16.09 Clear CLR 24 21     79%   25 1011.9 1011.6      
May 26 18:56 S 8 16.09 Clear CLR 26 20     69%   27 1011.5 1011.2      
May 26 17:56 9 16.09 Clear CLR 28 21     63%   30 1011.2 1010.9      
May 26 16:56 Calm 16.09 Clear CLR 30 21     57%   32 1011.5 1011      
May 26 15:56 9 16.09 Clear CLR 30 21     59%   33 1011.2 1010.9      
May 26 14:56 WSW 8 16.09 Mostly Clear FEW040 29 21     61%   32 1011.9 1011.4      
May 26 13:56 11 16.09 Partly Cloudy SCT034 SCT043 28 21     65%   31 1012.5 1012.4      
May 26 12:56 9 16.09 Partly Cloudy FEW030 SCT042 28 22     70%   31 1013.9 1013.5      
May 26 11:56 ESE 9 16.09 Partly Cloudy SCT025 SCT031 SCT042 28 22     69%   30 1014.2 1014.2      
May 26 10:56 SW 9 16.09 Cloudy BKN020 OVC029 26 22     79%   26 1015.2 1014.9      
May 26 10:31 Calm 16.09 Mostly Cloudy BKN020 BKN025 26 22     79%   28 1015.2        
May 26 10:12 Calm 16.09 Mostly Cloudy SCT012 SCT025 BKN110 25 22     83%   26 1015.2        
May 26 10:04 S 5 16.09 Mostly Cloudy BKN012 BKN023 24 22     89%   25 1015.2        
May 26 09:56 Calm 16.09 Mostly Cloudy SCT012 BKN020 BKN025 24 22     90%   25 1015.2 1015.3      
May 26 09:41 SW 5 16.09 Mostly Cloudy SCT014 BKN023 24 22     89%   25 1015.6        
May 26 08:56 Calm 16.09 Cloudy OVC010 23 22     94%   24 1015.2 1015.2      
May 26 07:56 Calm 16.09 Cloudy OVC010 22 22     97%   23 1014.9 1014.9      
May 26 06:56 Calm 16.09 Cloudy BKN010 OVC014 21 21     100%     1014.6 1014.4      
May 26 05:56 Calm 16.09 Cloudy OVC012 21 21     100%     1013.9 1013.8      
May 26 04:56 Calm 16.09 Cloudy OVC012 21 21     100%     1013.6 1013.2      
May 26 03:56 Calm 16.09 Cloudy OVC014 21 21     100%     1013.6 1013.2      
May 26 03:36 Calm 16.09 Mostly Cloudy BKN014 BKN020 21 21     100%     1013.6        
May 26 02:56 Calm 16.09 Mostly Cloudy BKN016 BKN021 21 21     100%     1013.6 1013.1      
May 26 01:56 Calm 16.09 Cloudy BKN020 OVC026 21 21     100%     1013.9 1013.6      
May 26 01:18 Calm 16.09 Mostly Cloudy BKN022 20 20     100%     1014.2        
May 26 00:56 ENE 5 16.09 Clear CLR 20 20     100%     1014.2 1014.2     0
May 25 23:56 WSW 5 16.09 Clear CLR 20 20     100%     1014.6 1014.3      
May 25 22:56 Calm 16.09 Clear CLR 21 21     100%     1014.6 1014.5      
May 25 21:56 SW 5 16.09 Clear CLR 21 21     100%     1015.2 1015   0  
May 25 20:56 Calm 16.09 Clear CLR 22 21     96%   22 1014.9 1014.8 0    
May 25 19:56 WSW 5 16.09 Light Rain SCT055 BKN070 BKN120 22 21     93%   23 1014.9 1014.8 0    
May 25 18:56 SW 9 16.09 Clear CLR 23 22     91%   24 1014.2 1014.1      
May 25 16:56 SW 13 16.09 Mostly Cloudy BKN044 BKN055 26 23     85%   26 1013.6 1013.3      
May 25 15:56 SE 5 16.09 Clear CLR 28 23     72%   32 1013.6 1013.3      
May 25 14:56 E 8 16.09 Clear CLR 29 22     63%   32 1014.2 1014      
May 25 13:56 ESE 11 16.09 Mostly Clear FEW037 30 22     63%   33 1014.9 1014.6      
May 25 12:56 ENE 9 16.09 Mostly Clear FEW046 29 23     70%   32 1015.9 1015.7      
May 25 11:56 E 11 16.09 Partly Cloudy SCT028 28 22     70%   31 1016.9 1016.7      
May 25 10:56 ENE 8 16.09 Mostly Cloudy BKN024 27 23     77%   30 1017.6 1017.3      
May 25 09:56 E 9 16.09 Mostly Cloudy BKN017 26 23     82%   28 1018 1017.6      
May 25 08:56 E 5 16.09 Mostly Clear FEW022 25 23     88%   26 1018.3 1018      
May 25 07:56 E 9 16.09 Cloudy FEW008 OVC021 23 22     94%   24 1018.3 1018.2      
May 25 07:24 E 11 16.09 Cloudy BKN008 OVC042 23 22     94%   24 1018.3        
May 25 07:16 ENE 11 16.09 Cloudy SCT008 OVC042 23 22     94%   24 1018.3        
May 25 06:56 ENE 9 16.09 Cloudy OVC042 22 22     100%   23 1018 1017.8      
May 25 05:56 NE 5 16.09 Clear CLR 21 21     100%     1017.6 1017.4      
May 25 05:17 Calm 16.09 Mostly Cloudy SCT014 BKN041 21 21     100%     1017.6        
May 25 04:56 Calm 9.66 Fog/Mist BKN012 BKN039 21 21     100%     1017.3 1017.1      
May 25 03:56 ENE 5 8.05 Fog/Mist FEW039 21 21     100%     1016.9 1016.8      
May 25 02:56 Calm 12.87 Mostly Cloudy BKN040 21 21     100%     1017.3 1017      
May 25 01:56 ESE 5 16.09 Cloudy SCT011 OVC039 22 22     100%   23 1018 1017.7      
May 25 01:40 SE 8 16.09 Mostly Cloudy BKN011 22 22     100%   23 1018        
May 25 00:56 E 9 14.48 Clear CLR 21 21     100%     1018.3 1017.9      
May 15 08:56 SE 9 16.09 Mostly Clear FEW060 25 20     74%   25 1016.6 1016.4      
May 15 05:56 NNW 9 6.44 Fog/Mist CLR 18 18     100%     1016.3 1015.9      
May 15 03:56 Calm 12.87 Mostly Clear FEW070 19 19     100%     1015.6 1015.4      
May 14 13:56 N 8 16.09 Clear CLR 33 18     42%   34 1016.6 1016.2      
May 14 11:56 NNE 15 16.09 Mostly Clear FEW060 31 18     48%   32 1017.6 1017.4      
May 13 18:56 Calm 16.09 Clear CLR 29 19     55%   31 1016.9 1017      
May 13 17:56 WNW 9 16.09 Clear CLR 31 18     45%   32 1016.9 1016.9      
May 13 03:56 Calm 3.22 Fog/Mist CLR 14 14     100%     1019 1018.9      
May 13 00:56 Calm 8.05 Fog/Mist CLR 16 16     100%     1019 1018.9      
May 12 04:56 Calm 12.87 Clear CLR 15 15     100%     1020.7 1020.5      
May 12 03:56 W 5 12.87 Clear CLR 15 15     100%     1020 1019.8      
May 11 20:56 WSW 5 16.09 Clear CLR 21 19     87%     1019 1018.9      
Jun 12 04:56 Calm 16.09 Mostly Cloudy FEW028 BKN034 21 21     97%     1021 1021.9      
Jun 11 10:20 Calm 16.09 Mostly Cloudy BKN021 27 22     74%   29 1022        
Jun 10 21:56 Calm 16.09 Clear   21 18     81%     1019.7 1020.7      
Jun 10 20:56 Calm 16.09 Clear CLR 23 18     71%   24 1018.6 1019.8      
Jun 10 03:56 Calm 16.09 Mostly Clear FEW070 16 16     100%     1016.6 1017.7      
Jun 08 22:56 Calm 16.09 Mostly Clear FEW060 17 16     93%     1013.6 1014.9      
Jun 07 18:56 N 15 16.09 Clear CLR 25 13     47%   25 1010.8 1012.2      
Jun 07 15:56 NNE 22 16.09 Clear CLR 28 12     38%   27 1010.2 1011.2      
Jun 07 13:56 N 17 16.09 Clear CLR 27 16     49%   28 1010.2 1011.4      
Jun 07 11:56 NE 17 16.09 Clear CLR 26 17     58%   26 1010.8        
Jun 06 04:23 Calm 11.27 Partly Cloudy SCT003 21 21     100%     1009.2        
Jun 05 23:56 Calm 16.09 Light Rain CLR 22 21     96%   22 1010.5 1011.3 0